AirNav   ProFlight Series 2 Aviation Headset
 
 1056 users online  

0PS2 Marian Heliport
Weatherly, Pennsylvania, USA

GOING TO WEATHERLY?


FAA INFORMATION EFFECTIVE 18 JUNE 2020

Location

FAA Identifier: 0PS2
Lat/Long: 40-59-22.3000N 075-45-04.6900W
40-59.371667N 075-45.078167W
40.9895278,-75.7513028
(estimated)
Elevation: 1285 ft. / 392 m (estimated)
Variation: 12W (2000)
From city: 4 miles NE of WEATHERLY, PA
Time zone: UTC -4 (UTC -5 during Standard Time)
Zip code: 18255

Heliport Operations

Heliport use: Private use. Permission required prior to landing
Activation date: 01/2002
Control tower: no
ARTCC: NEW YORK CENTER
FSS: WILLIAMSPORT FLIGHT SERVICE STATION
Attendance: UNATNDD
Wind indicator: lighted
Segmented circle: no
Lights: 24 HRS

Heliport Communications

WX AWOS-3PT at 22N (11 nm S): 119.350 (570-386-3423)
WX AWOS-3 at HZL (11 nm W): 119.975 (570-459-4901)
WX ASOS at MPO (19 nm NE): 120.275 (570-839-1584)

Nearby radio navigation aids

VOR radial/distance  VOR name  Freq  Var
LVZr199/17.2WILKES-BARRE VORTAC111.6010W
FJCr330/20.7ALLENTOWN VORTAC117.5010W
ETXr002/24.7EAST TEXAS VOR/DME110.2009W
STWr280/40.0STILLWATER VOR/DME109.6011W

Heliport Services

Runway Information

Helipad H1

Dimensions: 70 x 70 ft. / 21 x 21 m
Surface: concrete
Runway edge lights: PERI
Traffic pattern: leftleft

Heliport Ownership and Management from official FAA records

Ownership: Privately-owned
Owner: FLOYD C. HOFFMAN
190 DECKER LA.
WEATHERLY, PA 18255
Phone (570) 233-5958
Manager: FLOYD C. HOFFMAN
190 DECKER LA.
WEATHERLY, PA 18255
Phone (570) 233-5958

Heliport Operational Statistics

Aircraft based on the field: 1
Helicopters: 1
    

Additional Remarks

FOR CD CTC WILKES-BARRE APCH AT 570-655-2084.

Instrument Procedures

There are no published instrument procedures at 0PS2.

Some nearby airports with instrument procedures:

22N - Jake Arner Memorial Airport (11 nm S)
KHZL - Hazleton Regional Airport (11 nm W)
KMPO - Pocono Mountains Municipal Airport (19 nm NE)
KWBW - Wilkes-Barre Wyoming Valley Airport (19 nm N)
KAVP - Wilkes-Barre/Scranton International Airport (21 nm N)
 
Loc | Ops | Rwys | IFR | FBO | Links
Com | Nav | Svcs | Stats | Notes
Area around 0PS2 (Marian Heliport)
 
Road maps at: MapQuest Bing Google
 
Aerial photo
No photo
 
Sectional chart

 
Airport distance calculator
Flying to Marian Heliport? Find the distance to fly.

From to 0PS2

Sunrise and sunset
Times for 06-Jul-2020
 Local
(UTC-4)
 Zulu
(UTC)
Morning civil twilight05:0609:06
Sunrise05:3909:39
Sunset20:3700:37
Evening civil twilight21:1001:10

Current date and time
Zulu (UTC)  06-Jul-2020 23:57:49
Local (UTC-4)  06-Jul-2020 19:57:49
 
METAR
K22N 
11nm S 
062355Z AUTO 00000KT 7SM -RA SCT050 BKN110 21/21 A3006 RMK AO2 LTG DSNT S
KHZL 
11nm W 
062355Z AUTO 11004KT 10SM SCT095 21/17 A3010 RMK AO2 LTG DSNT SE
KMPO 
19nm NE 
062353Z AUTO 11005KT 10SM SCT085 BKN110 21/17 A3013 RMK AO2 LTG DSNT NE AND E SLP191 60000 T02060172 10278 20200 53016 $
KAVP 
21nm N 
062354Z VRB05KT 10SM SCT065 27/18 A3004 RMK AO2 LTG DSNT E SLP164 60000 T02720183 10322 20272 53010 $
TAF
NOTAMs
Click for the latest NOTAMs
NOTAMs are issued by the DoD/FAA and will open in a separate window not controlled by AirNav.

 

 
 

Would you like to see your business listed on this page?

 If your business provides an interesting product or service to pilots, flight crews, aircraft, or users of the Marian Heliport, you should consider listing it here.  To start the listing process, click on the button below
 
Add a business
 

Other Pages about Marian Heliport

Update a link
 
Copyright © AirNav, LLC. All rights reserved. Privacy Policy  Contact